Tracking 26544 objects as of 9-Dec-2022
HD Live streaming from Space Station
objects crossing your sky now

STARLINK-4053

Track STARLINK-4053 now!
10-day predictions
STARLINK-4053 is classified as:


NORAD ID: 53536
Int'l Code: 2022-101K
Perigee: 550.6 km
Apogee: 553.1 km
Inclination: 53.2 °
Period: 95.5 minutes
Semi major axis: 6922 km
RCS: Unknown
Launch date: August 19, 2022
Source: United States (US)
Launch site: AIR FORCE EASTERN TEST RANGE (AFETR)
aabbcc
Your satellite tracking list
Your tracking list is empty




NASA's NSSDC Master Catalog

Two Line Element Set (TLE):
1 53536U 22101K   22342.75982214  .00003090  00000-0  22143-3 0  9996
2 53536  53.2191 351.8165 0001827  34.3016 325.8093 15.07226277 17129
Source of the keplerian elements: AFSPC